World > North America > United States > New York
Hourly regional weather for Montrose, New YorkMontrose, New York Regional Hourly Weather

Montrose, New York Regional Weather

regional weather montrose, nyHOURLY REGIONAL WEATHER FOR MONTROSE, NY
Lat: 41.25N, Lon: 73.93W 
Web Search

Did you know? You can add this page to Bookmarks by pressing the Ctrl key & d key at the same time. Mac users press command & d.

Feedback


°F Click to change Montrose hourly weather to Imperial units.Click to change Montrose hourly weather to Metric units. °C
Montrose Weather Map
UTC Time: 8/3/2021, 06:59
Your Time:

Montrose, NY Regional Weather

Expires:202108030700;;894713
ASUS41 KALY 030610
RWRALY

NEW YORK STATE HOURLY WEATHER ROUNDUP
NATIONAL WEATHER SERVICE ALBANY NY
200 AM EDT TUE AUG 03 2021

NOTE: "FAIR" INDICATES FEW OR NO CLOUDS BELOW 12,000 FEET WITH NO
SIGNIFICANT WEATHER AND/OR NO OBSTRUCTIONS TO VISIBILITY.


NYZ032-033-038>043-046>054-057>066-NYZ062>081-082-084-030700-
EAST

  
CITY           SKY/WX    TMP DP  RH WIND       PRES   REMARKS
ALBANY         CLEAR     54  51  90 CALM      30.11S                  
GLENS FALLS    CLEAR     52  50  93 CALM      30.10S                  
POUGHKEEPSIE   CLEAR     56  53  90 CALM      30.10S                  
NEWBURGH       CLEAR     55  55 100 CALM      30.12S                  
MONTGOMERY     CLEAR     53  51  93 CALM      30.11F                  
WHITE PLAINS   PTCLDY    62  54  74 NW7       30.09F                  
ISLIP          CLEAR     63  57  81 CALM      30.08F                  
NEW YORK CITY  PTCLDY    72  50  45 N5        30.08F                  
CENTRAL PARK   CLEAR     69  49  48 W5        30.12F                  
$$


SKY/WX - Weather  TMP - Temperature  DP - Dew Point  RH - Relative Humidity
WIND - Wind Direction/Speed PRES - Barometric Pressure VSB - Visibility
WCI - Wind Chill Index E13G22 Wind - East Wind 13 mph/Gusts of 22 mph